This is the latest recevied weather packets stored in our database for station/object KC0RPY. If no packets are shown the sender has not sent any weather packets the latest 10 day(s).
| Time | Temp. | Humidity | Pressure | Rain* | Wind** | Luminosity | Snow |
|---|---|---|---|---|---|---|---|
| 1777819646 | 16.67° C | 54% | 1015 hPa | 0 mm | - | 546 W/m² | - |
| 1777819344 | 16.67° C | 54% | 1015 hPa | 0 mm | - | 489 W/m² | - |
| 1777819040 | 16.67° C | 54% | 1015.3 hPa | 0 mm | - | 460 W/m² | - |
| 1777818738 | 16.11° C | 54% | 1015.3 hPa | 0 mm | - | 447 W/m² | - |
| 1777818434 | 16.11° C | 54% | 1015 hPa | 0 mm | - | 103 W/m² | - |
| 1777818131 | 15.56° C | 54% | 1015.3 hPa | 0 mm | - | 402 W/m² | - |
| 1777817828 | 15.56° C | 55% | 1015.3 hPa | 0 mm | - | 377 W/m² | - |
| 1777817525 | 15.56° C | 55% | 1015.3 hPa | 0 mm | - | 347 W/m² | - |
| 1777817222 | 15° C | 55% | 1015.3 hPa | 0 mm | - | 306 W/m² | - |
| 1777816919 | 15° C | 55% | 1015.7 hPa | 0 mm | - | 321 W/m² | - |
| 1777816615 | 15° C | 56% | 1015.3 hPa | 0 mm | - | 79 W/m² | - |
| 1777816313 | 15° C | 55% | 1015.7 hPa | 0 mm | - | 290 W/m² | - |
| 1777816010 | 14.44° C | 56% | 1015.7 hPa | 0 mm | - | 269 W/m² | - |
| 1777815708 | 14.44° C | 56% | 1015.7 hPa | 0 mm | - | 91 W/m² | - |
| 1777815405 | 13.89° C | 57% | 1015.7 hPa | 0 mm | - | 168 W/m² | - |
| 1777815102 | 13.89° C | 57% | 1015.7 hPa | 0 mm | - | 216 W/m² | - |
| 1777814798 | 13.33° C | 57% | 1016 hPa | 0 mm | - | 60 W/m² | - |
| 1777814494 | 13.33° C | 57% | 1015.3 hPa | 0 mm | - | 66 W/m² | - |
| 1777814186 | 12.78° C | 58% | 1015.7 hPa | 0 mm | - | 76 W/m² | - |
| 1777813883 | 12.22° C | 58% | 1015.3 hPa | 0 mm | - | 51 W/m² | - |
| 1777813581 | 12.22° C | 60% | 1015.7 hPa | 0 mm | - | 62 W/m² | - |
| 1777813278 | 11.67° C | 60% | 1015.7 hPa | 0 mm | - | 49 W/m² | - |
| 1777812975 | 11.11° C | 60% | 1015.7 hPa | 0 mm | - | 52 W/m² | - |
| 1777812673 | 11.11° C | 61% | 1015.7 hPa | 0 mm | - | 54 W/m² | - |
| 1777812369 | 10.56° C | 61% | 1015.3 hPa | 0 mm | - | 44 W/m² | - |
* Rain latest hour (hover to see other rain measurements)
** Current wind speed in m/s (hover to see current wind gust speed)